• In Belarus
  • List of Countries
  • For 7 days
  • Water Temperature
  • Satellite Maps
  • Weather Map
  • Weather Widgets
  • user-avatar
    Login

    Hourly Weather Lezhe

    Today, 18 July, Wednesday

    Time Temperature Precipitation Wind Pressure Humidity
    00:00 +19°C° 0.1 mm 2 mps 734 mmHg 85%
    01:00 +19°C° 0 mm 2 mps 734 mmHg 86%
    02:00 +19°C° 0 mm 2 mps 734 mmHg 85%
    03:00 +19°C° 0 mm 2 mps 734 mmHg 85%
    04:00 +18°C° 0 mm 2 mps 734 mmHg 84%
    05:00 +20°C° 0 mm 2 mps 734 mmHg 78%
    06:00 +23°C° 0 mm 2 mps 734 mmHg 73%
    07:00 +24°C° 0 mm 2 mps 734 mmHg 67%
    08:00 +26°C° 0 mm 2 mps 734 mmHg 61%
    09:00 +27°C° 0 mm 2 mps 734 mmHg 54%
    10:00 +28°C° 0 mm 2 mps 734 mmHg 48%
    11:00 +29°C° 0 mm 3 mps 734 mmHg 48%
    12:00 +29°C° 0 mm 3 mps 734 mmHg 48%
    13:00 +30°C° 0 mm 4 mps 734 mmHg 49%
    14:00 +29°C° 0.1 mm 4 mps 734 mmHg 51%
    15:00 +29°C° 0.1 mm 4 mps 734 mmHg 54%
    16:00 +28°C° 0.1 mm 4 mps 734 mmHg 56%
    17:00 +27°C° 0.3 mm 4 mps 734 mmHg 62%
    18:00 +25°C° 0.3 mm 3 mps 734 mmHg 68%
    19:00 +24°C° 0.3 mm 3 mps 735 mmHg 75%
    20:00 +22°C° 0.2 mm 3 mps 735 mmHg 75%
    21:00 +21°C° 0.2 mm 3 mps 735 mmHg 76%
    22:00 +20°C° 0.2 mm 2 mps 735 mmHg 77%
    23:00 +20°C° 0 mm 2 mps 735 mmHg 76%

    Tomorrow, 19 July, Thursday

    Time Temperature Precipitation Wind Pressure Humidity
    00:00 +19°C° 0 mm 2 mps 735 mmHg 74%
    01:00 +19°C° 0 mm 2 mps 735 mmHg 73%
    02:00 +19°C° 0 mm 2 mps 735 mmHg 73%
    03:00 +19°C° 0 mm 2 mps 735 mmHg 73%
    04:00 +19°C° 0 mm 2 mps 735 mmHg 72%
    05:00 +20°C° 0 mm 2 mps 735 mmHg 68%
    06:00 +23°C° 0 mm 1 mps 735 mmHg 65%
    07:00 +25°C° 0 mm 1 mps 735 mmHg 61%
    08:00 +26°C° 0 mm 1 mps 735 mmHg 57%
    09:00 +27°C° 0 mm 2 mps 735 mmHg 54%
    10:00 +28°C° 0 mm 2 mps 735 mmHg 51%
    11:00 +29°C° 0 mm 2 mps 735 mmHg 50%
    12:00 +29°C° 0 mm 3 mps 735 mmHg 50%
    13:00 +30°C° 0 mm 3 mps 735 mmHg 50%
    14:00 +29°C° 0.1 mm 4 mps 735 mmHg 53%
    15:00 +29°C° 0.1 mm 4 mps 735 mmHg 56%
    16:00 +28°C° 0.1 mm 4 mps 735 mmHg 59%
    17:00 +27°C° 0 mm 3 mps 735 mmHg 63%
    18:00 +26°C° 0 mm 3 mps 735 mmHg 67%
    19:00 +24°C° 0 mm 3 mps 735 mmHg 72%
    20:00 +22°C° 0 mm 3 mps 735 mmHg 73%
    21:00 +22°C° 0 mm 3 mps 736 mmHg 74%
    22:00 +21°C° 0 mm 2 mps 736 mmHg 75%
    23:00 +20°C° 0 mm 2 mps 736 mmHg 75%

    Day after tomorrow, 20 July, Friday

    Time Temperature Precipitation Wind Pressure Humidity
    00:00 +20°C° 0 mm 2 mps 736 mmHg 76%
    01:00 +20°C° 0 mm 2 mps 735 mmHg 76%
    02:00 +20°C° 0 mm 2 mps 735 mmHg 77%
    03:00 +20°C° 0 mm 2 mps 735 mmHg 78%
    04:00 +19°C° 0 mm 2 mps 735 mmHg 78%
    05:00 +21°C° 0 mm 2 mps 735 mmHg 74%
    06:00 +24°C° 0 mm 2 mps 736 mmHg 70%
    07:00 +25°C° 0 mm 2 mps 736 mmHg 66%
    08:00 +27°C° 0 mm 2 mps 736 mmHg 61%
    09:00 +28°C° 0 mm 2 mps 736 mmHg 55%
    10:00 +30°C° 0 mm 2 mps 736 mmHg 50%
    11:00 +30°C° 0 mm 2 mps 736 mmHg 49%
    12:00 +31°C° 0 mm 3 mps 736 mmHg 48%
    13:00 +31°C° 0 mm 3 mps 735 mmHg 47%
    14:00 +31°C° 0 mm 3 mps 735 mmHg 47%
    15:00 +31°C° 0 mm 3 mps 735 mmHg 48%
    16:00 +31°C° 0 mm 3 mps 735 mmHg 49%
    17:00 +29°C° 0 mm 3 mps 735 mmHg 55%
    18:00 +27°C° 0 mm 2 mps 735 mmHg 62%
    19:00 +25°C° 0 mm 2 mps 735 mmHg 68%
    20:00 +24°C° 0 mm 2 mps 736 mmHg 69%
    21:00 +23°C° 0 mm 2 mps 736 mmHg 70%
    22:00 +23°C° 0 mm 2 mps 736 mmHg 71%
    23:00 +21°C° 0 mm 2 mps 736 mmHg 70%

    21 July, Saturday

    Time Temperature Precipitation Wind Pressure Humidity
    00:00 +21°C° 0 mm 2 mps 736 mmHg 70%
    01:00 +21°C° 0 mm 2 mps 736 mmHg 69%
    02:00 +20°C° 0 mm 2 mps 736 mmHg 69%
    03:00 +20°C° 0 mm 2 mps 736 mmHg 68%
    04:00 +20°C° 0 mm 2 mps 735 mmHg 68%
    05:00 +23°C° 0 mm 2 mps 735 mmHg 63%
    06:00 +25°C° 0 mm 1 mps 735 mmHg 59%
    07:00 +26°C° 0 mm 1 mps 736 mmHg 55%
    08:00 +28°C° 0 mm 1 mps 736 mmHg 50%
    09:00 +29°C° 0 mm 1 mps 736 mmHg 45%
    10:00 +31°C° 0 mm 2 mps 736 mmHg 41%
    11:00 +31°C° 0 mm 2 mps 735 mmHg 40%
    12:00 +32°C° 0 mm 2 mps 735 mmHg 40%
    13:00 +34°C° 0 mm 3 mps 735 mmHg 40%
    14:00 +33°C° 0 mm 3 mps 735 mmHg 42%
    15:00 +32°C° 0 mm 2 mps 735 mmHg 43%
    16:00 +32°C° 0 mm 2 mps 734 mmHg 45%
    17:00 +30°C° 0 mm 2 mps 734 mmHg 51%
    18:00 +28°C° 0 mm 1 mps 734 mmHg 57%
    19:00 +25°C° 0 mm 1 mps 734 mmHg 63%
    20:00 +25°C° 0 mm 1 mps 734 mmHg 64%
    21:00 +24°C° 0 mm 1 mps 734 mmHg 64%
    22:00 +23°C° 0 mm 2 mps 735 mmHg 65%
    23:00 +23°C° 0 mm 2 mps 735 mmHg 63%

    22 July, Sunday

    Time Temperature Precipitation Wind Pressure Humidity
    00:00 +23°C° 0 mm 2 mps 734 mmHg 62%
    01:00 +23°C° 0 mm 2 mps 734 mmHg 61%
    02:00 +23°C° 0 mm 2 mps 734 mmHg 61%
    03:00 +21°C° 0 mm 2 mps 734 mmHg 60%
    04:00 +21°C° 0 mm 2 mps 734 mmHg 60%
    05:00 +24°C° 0 mm 2 mps 734 mmHg 58%
    06:00 +26°C° 0 mm 2 mps 733 mmHg 57%
    07:00 +28°C° 0 mm 2 mps 733 mmHg 55%
    08:00 +30°C° 0 mm 2 mps 733 mmHg 50%
    09:00 +31°C° 0 mm 2 mps 733 mmHg 45%
    10:00 +34°C° 0 mm 2 mps 732 mmHg 40%
    11:00 +34°C° 0.1 mm 3 mps 732 mmHg 39%
    12:00 +35°C° 0.1 mm 4 mps 731 mmHg 38%
    13:00 +35°C° 0.1 mm 4 mps 731 mmHg 37%
    14:00 +35°C° 0 mm 4 mps 730 mmHg 41%
    15:00 +34°C° 0 mm 5 mps 730 mmHg 44%
    16:00 +33°C° 0 mm 5 mps 730 mmHg 47%
    17:00 +30°C° 0 mm 4 mps 729 mmHg 55%
    18:00 +28°C° 0 mm 4 mps 729 mmHg 62%
    19:00 +26°C° 0 mm 3 mps 729 mmHg 69%
    20:00 +25°C° 0.5 mm 3 mps 729 mmHg 71%
    21:00 +25°C° 0.5 mm 4 mps 729 mmHg 72%
    22:00 +23°C° 0.5 mm 4 mps 729 mmHg 74%
    23:00 +22°C° 2.9 mm 4 mps 729 mmHg 79%

    23 July, Monday

    Time Temperature Precipitation Wind Pressure Humidity
    00:00 +22°C° 2.9 mm 3 mps 729 mmHg 83%
    01:00 +21°C° 2.9 mm 3 mps 729 mmHg 88%
    02:00 +21°C° 0.7 mm 3 mps 729 mmHg 88%
    03:00 +20°C° 0.7 mm 2 mps 729 mmHg 87%
    04:00 +20°C° 0.7 mm 2 mps 729 mmHg 87%
    05:00 +21°C° 0.8 mm 2 mps 729 mmHg 84%
    06:00 +23°C° 0.8 mm 2 mps 729 mmHg 81%
    07:00 +24°C° 0.8 mm 2 mps 729 mmHg 78%
    08:00 +25°C° 0.6 mm 2 mps 729 mmHg 73%
    09:00 +26°C° 0.6 mm 2 mps 729 mmHg 69%
    10:00 +27°C° 0.6 mm 2 mps 729 mmHg 64%
    11:00 +28°C° 0.6 mm 2 mps 729 mmHg 62%
    12:00 +28°C° 0.6 mm 2 mps 729 mmHg 60%
    13:00 +29°C° 0.6 mm 2 mps 729 mmHg 57%
    14:00 +29°C° 0.6 mm 2 mps 729 mmHg 58%
    15:00 +29°C° 0.6 mm 2 mps 729 mmHg 59%
    16:00 +29°C° 0.6 mm 2 mps 729 mmHg 60%
    17:00 +27°C° 0.6 mm 2 mps 729 mmHg 66%
    18:00 +26°C° 0.6 mm 2 mps 730 mmHg 72%
    19:00 +24°C° 0.6 mm 2 mps 730 mmHg 78%
    20:00 +23°C° 0.2 mm 2 mps 730 mmHg 80%
    21:00 +23°C° 0.2 mm 2 mps 730 mmHg 82%
    22:00 +21°C° 0.2 mm 2 mps 731 mmHg 84%
    23:00 +21°C° 0.1 mm 2 mps 730 mmHg 84%
    Show more